Location: ?????????
(55.6553°N, 38.9075°E)
Time: 17:37:59
(UTC+00:00)

Cosmos 2278 Rocket - Pass Details

Date: 18 October 2019
Orbit: 840 x 846 km, 71.0° (Epoch: 18 November)

Event Time Altitude Azimuth Distance (km) Brightness Sun altitude
Exits shadow 02:44:40 - 317° (NW) 3,123 4.7 -11.3°
Reaches altitude 10° 02:46:45 10° 306° (NW) 2,480 4.2 -11.0°
Maximum altitude 02:50:55 21° 258° (WSW) 1,802 3.3 -10.5°
Drops below altitude 10° 02:55:04 10° 211° (SSW) 2,466 4.4 -9.9°
Sets 02:58:02 0° 196° (SSW) 3,395 5.2 -9.5°
